Home   Weather   Rathenow   Past weeks

Flag for Germany Past Weather in Rathenow, Brandenburg, Germany — Yesterday and Last 2 Weeks

Now
50 °F

Broken clouds.


Feels Like: 45 °F
Forecast: 34 / 51 °F
Wind: 13 mph from West

Location: Berlin-Tegel

Current Time: Apr 25, 2017 at 8:48:44 am

Latest Report: Apr 25, 2017 at 8:20 am


Visibility: N/A

Pressure: 29.56 "Hg

Humidity: 71%

Dew Point: 41 °F

Location of RathenowLocation

Past Weather in Rathenow — Graph

°F

Rathenow Temperature Yesterday

Maximum temperature yesterday: 57 °F (at 3:20 pm)
Minimum temperature yesterday: 34 °F (at 2:50 am)
Average temperature yesterday: 47 °F

High & Low Weather Summary for the Past Weeks

 TemperatureHumidityPressure
High68 °F (Apr 10, 11:50 am)100% (Apr 17, 4:20 am)30.60 "Hg (Apr 17, 4:20 am)
Low28 °F (Apr 20, 4:20 am)34% (Apr 19, 4:50 pm)29.56 "Hg (Apr 25, 5:50 am)
Average45 °F70%30.05 "Hg
* Reported Apr 10 7:20 am — Apr 25 7:50 am, Rathenow, Weather by CustomWeather, © 2017

Note: Actual official high and low records may vary slightly from our data, if they occured in-between our weather recording intervals... More about our weather records

Advertising

Rathenow Weather History for the Previous 24 Hours

Scroll right to see more
 ConditionsComfort  
Time TempWeatherWind HumidityBarometerVisibility
7:50 am
Tue, Apr 25
50 °FBroken clouds.8 mph67%29.56 "HgN/A
7:20 am48 °FLight rain. Clear.5 mph76%29.56 "HgN/A
6:50 am48 °FLight rain. Clear.3 mph76%29.56 "HgN/A
5:50 am46 °FPassing clouds.3 mph76%29.56 "HgN/A
4:20 am46 °FClear.5 mph82%29.59 "Hg10 mi
3:50 am46 °FClear.2 mph76%29.59 "Hg10 mi
3:20 am48 °FClear.3 mph76%29.62 "Hg10 mi
2:50 am48 °FClear.5 mph76%29.62 "Hg10 mi
2:20 am48 °FClear.5 mph76%29.65 "Hg10 mi
1:50 am48 °FClear.3 mph76%29.68 "Hg10 mi
12:50 am48 °FClear.6 mph76%29.71 "Hg10 mi
12:20 am48 °FClear.7 mph76%29.71 "Hg10 mi
11:50 pm
Mon, Apr 24
50 °FPassing clouds.6 mph67%29.71 "HgN/A
11:20 pm50 °FClear.7 mph67%29.74 "Hg10 mi
10:50 pm50 °FPassing clouds.7 mph67%29.74 "HgN/A
10:20 pm52 °FClear.8 mph58%29.74 "Hg10 mi
9:50 pm54 °FClear.6 mph51%29.74 "Hg10 mi
9:20 pm54 °FClear.7 mph51%29.74 "Hg10 mi
8:50 pm54 °FClear.8 mph51%29.77 "Hg10 mi
8:20 pm54 °FClear.8 mph47%29.77 "Hg10 mi
7:50 pm55 °FSunny.8 mph44%29.77 "Hg10 mi
7:20 pm55 °FSunny.12 mph41%29.77 "Hg10 mi
6:50 pm55 °FSunny.14 mph41%29.77 "Hg10 mi
6:20 pm55 °FSunny.17 mph41%29.80 "Hg10 mi
5:50 pm55 °FSunny.20 mph38%29.80 "Hg10 mi
5:20 pm57 °FSunny.17 mph36%29.80 "Hg10 mi
4:50 pm57 °FPassing clouds.21 mph39%29.83 "HgN/A
4:20 pm57 °FPassing clouds.22 mph36%29.83 "HgN/A
3:50 pm57 °FSunny.17 mph36%29.83 "Hg10 mi
3:20 pm57 °FPassing clouds.17 mph41%29.86 "HgN/A
2:50 pm55 °FPartly sunny.17 mph41%29.86 "HgN/A
2:20 pm54 °FPartly sunny.20 mph44%29.89 "HgN/A
1:50 pm54 °FPartly sunny.16 mph44%29.92 "HgN/A
1:20 pm54 °FPartly sunny.14 mph47%29.92 "HgN/A
12:50 pm52 °FPartly sunny.17 mph47%29.95 "HgN/A
12:20 pm52 °FPartly sunny.17 mph44%29.95 "HgN/A
11:50 am50 °FPartly sunny.17 mph50%29.98 "HgN/A
11:20 am50 °FPartly sunny.17 mph50%29.98 "HgN/A
10:50 am48 °FPartly sunny.17 mph54%30.01 "HgN/A
10:20 am46 °FScattered clouds.13 mph62%30.01 "HgN/A
9:50 am45 °FBroken clouds.13 mph61%30.04 "HgN/A
9:20 am45 °FPassing clouds.14 mph66%30.04 "HgN/A
8:50 am45 °FPassing clouds.10 mph71%30.04 "HgN/A
8:20 am41 °FPassing clouds.8 mph76%30.07 "HgN/A
Weather by CustomWeather, © 2017

See weather overviewHow to use our weather pages